Вернуться в каталог

DELTA 1 DEB

АктивенPO
NORAD 26841·DEBRIS·🇺🇸 United States

Запущен Jun 12, 1975 с Vandenberg Space Force Base

Loading…

Ближайшие Пролёты (ближайшие 24 часа)

TLE

СвежийSource: Space-Track

Эпоха: Sep 14, 2026, 09:22 UTC

1 26841U 75052KV  26257.39077944  .00000678  00000-0  15540-2 0  9993
2 26841  99.9043 220.7548 0509194 335.8746 176.3565 12.89650202582596

Отслеживайте DELTA 1 DEB в реальном времени с AllMySat

Download on the App Store